Flag for U.S.A. Weather past 2 weeks in Inverness, Florida, U.S.A.

Now
75 °F

Mild.


Feels Like: 74 °F
Forecast: 74 / 85 °F
Wind: 6 mph from Northeast

Location: The Villages

Current Time: Aug 30, 2015 at 8:22:39 AM

Latest Report: Aug 30, 2015 at 7:55 AM


Visibility: 10 mi

Pressure: 29.92 "Hg

Humidity: 94%

Dew point: 73 °F

Location of InvernessLocation

Historic Weather in Inverness — Graph

°F

Inverness temperature yesterday

Maximum temperature yesterday: 91 °F (at 3:55 PM)
Minimum temperature yesterday: 73 °F (at 12:35 AM)
Average temperature yesterday: 80 °F

Past Weeks' High & Low Weather Summary

 TemperatureHumidityPressure
High95 °F (Aug 19, 4:50 PM)100% (Aug 15, 7:10 AM)30.04 "Hg (Aug 15, 7:10 AM)
Low72 °F (Aug 15, 7:50 PM)46% (Aug 28, 3:15 PM)29.77 "Hg (Aug 25, 5:55 PM)
Average82 °F90%29.91 "Hg
* Reported Aug 15 7:10 AM — Aug 30 7:15 AM, Inverness, Weather by CustomWeather, © 2015

Note: Actual official high and low records may vary slightly from our data, if they occured in-between our weather recording intervals... More about our weather records

Advertising

Inverness weather history for previous 24 hours

 ConditionsComfort  
Time TempWeatherWind HumidityBarometerVisibility
7:15 AM
Sun, Aug 30
73 °FMild.No wind94%29.91 "Hg10 mi
6:55 AM73 °FMild.No wind94%29.91 "Hg10 mi
6:35 AM73 °FMild.No wind94%29.91 "Hg10 mi
6:15 AM73 °FMild.No wind94%29.91 "Hg8 mi
5:55 AM73 °FMild.No wind94%29.91 "Hg10 mi
5:35 AM73 °FMild.No wind94%29.91 "Hg8 mi
5:15 AM73 °FMild.No wind94%29.91 "Hg7 mi
4:55 AM73 °FMild.No wind94%29.91 "Hg8 mi
4:35 AM73 °FMild.No wind94%29.91 "Hg10 mi
4:15 AM73 °FMild.3 mph94%29.91 "Hg10 mi
3:55 AM73 °FMild.5 mph94%29.90 "Hg10 mi
3:35 AM73 °FMild.3 mph94%29.90 "Hg10 mi
3:15 AM73 °FMild.5 mph94%29.88 "Hg10 mi
2:55 AM73 °FMild.No wind94%29.88 "Hg10 mi
2:35 AM73 °FMild.No wind94%29.89 "Hg10 mi
2:15 AM73 °FMild.6 mph94%29.91 "Hg10 mi
1:55 AM73 °FMild.9 mph94%29.92 "Hg10 mi
1:35 AM73 °FMild.5 mph94%29.94 "Hg10 mi
1:15 AM73 °FMild.8 mph94%29.95 "Hg10 mi
12:55 AM73 °FMild.10 mph94%29.93 "Hg10 mi
12:15 AM75 °FMild.8 mph94%29.96 "Hg10 mi
11:55 PM
Sat, Aug 29
75 °FMild.9 mph94%29.96 "Hg9 mi
11:35 PM75 °FMild.6 mph94%29.97 "Hg10 mi
11:15 PM75 °FMild.9 mph94%29.97 "Hg9 mi
10:55 PM75 °FMild.10 mph94%29.98 "Hg9 mi
10:35 PM77 °FWarm.10 mph94%29.98 "Hg10 mi
10:15 PM77 °FWarm.9 mph94%29.96 "Hg7 mi
9:55 PM77 °FWarm.6 mph94%29.95 "Hg10 mi
9:15 PM75 °FMild.7 mph100%29.95 "Hg10 mi
8:55 PM75 °FMild.8 mph94%29.94 "Hg10 mi
8:15 PM75 °FMild.6 mph94%29.95 "Hg10 mi
7:55 PM75 °FMild.5 mph94%29.95 "Hg9 mi
7:35 PM75 °FFog.No wind94%29.97 "Hg2 mi
7:15 PM75 °FFog.6 mph100%29.98 "Hg3 mi
6:55 PM75 °FMild.7 mph94%29.98 "Hg10 mi
6:35 PM75 °FMild.9 mph100%29.97 "Hg7 mi
5:55 PM75 °FMild.7 mph94%29.97 "Hg7 mi
5:15 PM77 °FFog.8 mph89%29.94 "Hg4 mi
4:55 PM79 °FHaze.16 mph84%29.93 "Hg5 mi
4:35 PM88 °FWarm.6 mph62%29.91 "Hg10 mi
4:15 PM90 °FHot.5 mph59%29.92 "Hg10 mi
3:55 PM91 °FHot.No wind52%29.92 "Hg10 mi
3:35 PM90 °FHot.No wind55%29.93 "Hg10 mi
3:15 PM90 °FHot.6 mph55%29.94 "Hg9 mi
2:55 PM90 °FHot.No wind59%29.96 "Hg10 mi
2:35 PM90 °FHot.No wind63%29.96 "Hg10 mi
2:15 PM90 °FHot.6 mph55%29.97 "Hg9 mi
1:55 PM90 °FHot.6 mph63%29.99 "Hg10 mi
1:35 PM88 °FWarm.7 mph62%29.99 "Hg8 mi
1:15 PM88 °FWarm.3 mph66%30.00 "Hg10 mi
12:55 PM88 °FHaze.7 mph66%30.00 "Hg6 mi
12:35 PM88 °FWarm.6 mph70%30.00 "Hg10 mi
12:15 PM86 °FWarm.6 mph70%30.00 "Hg10 mi
11:55 AM86 °FHaze.8 mph75%30.00 "Hg6 mi
11:35 AM86 °FWarm.6 mph75%30.01 "Hg7 mi
11:15 AM84 °FWarm.8 mph79%30.00 "Hg10 mi
10:55 AM84 °FWarm.7 mph79%30.00 "Hg10 mi
10:35 AM84 °FWarm.7 mph79%30.00 "Hg10 mi
10:15 AM82 °FWarm.7 mph84%30.00 "Hg10 mi
9:55 AM82 °FWarm.6 mph84%30.00 "Hg10 mi
9:35 AM81 °FWarm.6 mph89%30.00 "Hg10 mi
9:15 AM81 °FWarm.5 mph89%30.01 "Hg10 mi
8:55 AM79 °FFog.6 mph94%30.00 "Hg6 mi
8:35 AM79 °FWarm.3 mph94%30.00 "Hg10 mi
Weather by CustomWeather, © 2015

See weather overviewHow to use our weather pages